EW5040 Weather Reports


Display with metric or nautical units.
time (UTC)temp
F
wind
direction
speed
MPH
gust
MPH
rain 1hr
in
rain 24hr
in
rain mn
in
humidity
%
barometer
mb
20260507090022 36 200 0.0 0.0 0.00 0.12 0.00 94 1012.0
20260507084524 36 200 0.0 0.0 0.00 0.18 0.00 94 1011.9
20260507083017 36 200 0.0 0.0 0.00 0.18 0.00 94 1011.9
20260507081522 36 200 0.0 0.0 0.00 0.18 0.00 94 1012.0
20260507080013 37 200 0.0 0.0 0.00 0.18 0.00 93 1012.1
20260507074512 37 200 0.0 0.0 0.00 0.22 0.00 93 1012.1
20260507073010 38 200 0.0 0.0 0.00 0.22 0.00 93 1012.0
20260507071508 38 200 0.0 0.0 0.00 0.22 0.00 93 1012.1
20260507070010 39 200 0.0 0.0 0.00 0.22 0.00 93 1012.0
20260507064502 40 200 0.0 0.0 0.00 0.26 0.00 93 1011.9
20260507063101 40 200 0.0 0.0 0.00 0.26 0.00 94 1012.3
20260507061557 41 200 0.0 0.0 0.00 0.26 0.00 94 1012.4
20260507060103 41 200 0.0 0.0 0.00 0.26 0.00 94 1012.6
20260507054556 42 200 0.0 0.0 0.00 0.31 0.00 94 1012.6
20260507053056 42 200 0.0 0.0 0.00 0.31 0.00 93 1012.6
20260507051551 42 200 0.0 0.0 0.00 0.31 0.00 93 1012.7
20260507050050 42 200 0.0 0.0 0.00 0.31 0.00 93 1012.8
20260507044557 43 200 0.0 0.0 0.00 0.37 0.00 93 1012.8
20260507043046 43 200 0.0 0.0 0.00 0.37 0.00 93 1012.9
20260507041544 43 200 0.0 1.0 0.00 0.37 0.00 93 1013.0
20260507040043 43 200 0.0 0.0 0.00 0.37 0.00 93 1012.9
20260507034544 43 200 0.0 2.0 0.00 0.39 0.37 93 1012.8
20260507033043 43 200 0.0 1.0 0.00 0.39 0.37 93 1012.8
20260507031541 43 200 0.0 1.0 0.00 0.39 0.37 93 1012.8
20260507030040 44 200 0.0 0.0 0.00 0.39 0.37 93 1012.8
20260507024544 44 200 0.0 2.0 0.00 0.44 0.37 93 1012.8
20260507023039 44 200 0.0 3.0 0.00 0.44 0.37 93 1012.7
20260507021538 44 200 0.0 0.0 0.00 0.44 0.37 93 1012.9
20260507020046 44 200 0.0 2.0 0.00 0.44 0.37 93 1012.8
20260507014538 44 200 0.0 3.0 0.00 0.47 0.37 92 1013.0
20260507013040 44 169 1.0 5.0 0.00 0.47 0.37 92 1013.1
20260507011536 44 13 0.0 0.0 0.00 0.47 0.37 91 1012.8
20260507010039 44 13 0.0 0.0 0.00 0.47 0.37 90 1012.7
20260507004534 44 13 0.0 0.0 0.00 0.57 0.37 90 1012.7
20260507003032 44 13 0.0 0.0 0.00 0.57 0.37 90 1012.4
20260507001535 44 13 0.0 0.0 0.00 0.57 0.37 90 1012.2
20260507000026 44 13 0.0 0.0 0.00 0.57 0.37 90 1012.1
20260506234526 44 13 0.0 0.0 0.00 0.70 0.37 90 1012.0
20260506233025 45 13 0.0 0.0 0.00 0.70 0.37 90 1011.9
20260506231527 45 13 0.0 2.0 0.00 0.70 0.37 90 1011.9
20260506230022 45 13 0.0 2.0 0.00 0.70 0.37 90 1011.7
20260506224521 44 317 0.0 4.0 0.00 0.79 0.37 91 1011.5
20260506223019 44 297 2.0 6.0 0.00 0.79 0.37 91 1011.4
20260506221516 44 338 2.0 9.0 0.00 0.79 0.37 91 1011.0
20260506220014 44 298 3.0 9.0 0.00 0.79 0.37 91 1010.8
20260506214513 44 345 4.0 13.0 0.00 0.91 0.37 92 1010.8
20260506213013 43 304 2.0 12.0 0.00 0.91 0.37 92 1010.7
20260506211510 43 323 4.0 12.0 0.00 0.91 0.37 92 1010.6
20260506210010 43 308 3.0 13.0 0.00 0.91 0.37 91 1010.4
20260506204504 44 300 4.0 13.0 0.00 0.96 0.37 88 1010.4
20260506203001 47 271 2.0 9.0 0.00 0.96 0.37 85 1010.3
20260506201600 50 286 4.0 13.0 0.00 0.96 0.37 84 1010.3
20260506200057 51 228 4.0 12.0 0.00 0.96 0.37 83 1010.0
20260506194605 53 244 4.0 11.0 0.00 0.96 0.37 81 1009.7
20260506193058 54 211 3.0 12.0 0.00 0.96 0.37 79 1009.6
20260506191553 54 163 5.0 17.0 0.00 0.96 0.37 79 1009.5
20260506190048 53 192 4.0 12.0 0.00 0.96 0.37 83 1009.4
20260506184545 51 114 3.0 8.0 0.00 0.96 0.37 86 1009.3
20260506183044 51 182 2.0 7.0 0.00 0.96 0.37 84 1009.3
20260506181546 51 243 2.0 6.0 0.00 0.96 0.37 87 1009.2
20260506180047 50 202 1.0 7.0 0.00 0.96 0.37 88 1009.3
20260506174540 50 195 1.0 5.0 0.00 0.96 0.37 87 1009.3
20260506173041 51 192 1.0 5.0 0.00 0.96 0.37 87 1009.2
20260506171549 51 63 1.0 5.0 0.00 0.96 0.37 87 1009.3
20260506170036 50 62 1.0 3.0 0.00 0.96 0.37 87 1009.3
20260506164532 50 62 1.0 3.0 0.00 0.96 0.37 88 1009.4
20260506163025 50 62 1.0 4.0 0.00 0.96 0.37 90 1009.2
20260506161522 49 63 0.0 3.0 0.00 0.96 0.37 93 1008.8
20260506160019 49 63 0.0 2.0 0.00 0.96 0.37 93 1009.2
20260506154518 49 63 0.0 3.0 0.00 0.96 0.37 94 1009.0
20260506153016 48 63 1.0 3.0 0.00 0.96 0.37 95 1009.0
20260506151529 48 63 0.0 2.0 0.01 0.96 0.37 96 1009.0
20260506150013 48 63 0.0 4.0 0.01 0.96 0.37 96 1008.8
20260506144512 47 63 0.0 3.0 0.01 0.96 0.37 96 1008.8
20260506143011 47 63 1.0 4.0 0.02 0.96 0.37 97 1008.5
20260506141508 47 63 0.0 3.0 0.01 0.95 0.36 97 1008.5
20260506140005 47 63 0.0 3.0 0.01 0.95 0.36 97 1008.5
20260506134505 46 63 0.0 3.0 0.01 0.95 0.36 97 1008.4
20260506133003 46 63 1.0 4.0 0.00 0.94 0.35 97 1008.1
20260506131502 46 63 1.0 5.0 0.01 0.94 0.35 97 1008.0
20260506130100 46 63 0.0 3.0 0.01 0.94 0.35 97 1008.0
20260506124559 46 63 0.0 4.0 0.01 0.94 0.35 97 1007.8
20260506123058 46 63 0.0 2.0 0.02 0.94 0.35 97 1007.8
20260506121555 46 63 1.0 3.0 0.01 0.93 0.34 97 1007.7
20260506120053 46 63 0.0 2.0 0.02 0.93 0.34 97 1007.5
20260506114558 45 63 0.0 4.0 0.03 0.93 0.34 97 1007.3
20260506113058 45 63 0.0 2.0 0.02 0.92 0.33 97 1007.2
20260506111551 45 63 0.0 5.0 0.03 0.92 0.33 97 1007.2
20260506110047 45 42 1.0 3.0 0.02 0.91 0.32 97 1007.4
20260506104555 45 48 0.0 2.0 0.02 0.90 0.31 97 1007.6
20260506103051 45 46 0.0 3.0 0.03 0.90 0.31 97 1007.3
20260506101549 45 53 0.0 6.0 0.03 0.89 0.30 97 1007.3
20260506100041 46 12 2.0 8.0 0.04 0.89 0.30 97 1007.2
20260506094537 46 51 1.0 3.0 0.05 0.88 0.28 97 1007.5
20260506093037 46 319 1.0 3.0 0.06 0.87 0.28 97 1007.8
20260506091535 46 12 0.0 3.0 0.06 0.86 0.27 97 1007.6